Dolls Point Real Estate, NSW, 2219 Bayside (NSW)

Thinking about buying in Dolls Point? Now could not be a better time, with a whopping 1461 properties either residential or commercial there's certainly plenty to choose from.

The average property price for this area is $1,351,000 with prices in this suburb ranging from $643,000 to $2,155,000.

Distance to the coast is 0 Km.

Dolls Point Real Estate Market Outlook

Prices are above market average and increase steadily under persistent demand. A more sustainable rate of price growth is anticipated in the short to medium term. In this area of average incomes, there is a mix of housing size and quality. While this may present buying opportunities, growth may be constrained. As buyers begin to examine Dolls Point due to other areas being out of the price range and the trend to working from home, "gentrification" may incease price growth. A mix of professions and above average income earners in Dolls Point provides good demand. The lower than average housing turnover of these people also means fewer regular listings leading to periodic large price increases. Medium density in Dolls Point necessitates a mix of lifestyle options for housing, shops, open areas, and facilties. Where this is available, demand is high and growth ensured. Higher than average industry presence in the wider area offering local employment yet with not a large negative impact on local amenity, provides good demand and price growth.

About

For Sale

Century21 UNIT 9, 11 GANNON AV, DOLLS POINT, NSW, 2219 2 1 Sat 4 Jun at 10:30am

More

Local Schools


None within suburb boundary

(While the above schools are located with the suburb of Dolls Point there may also be nearby schools whose catchments cover this suburb)

Local Crime Stats


Average Local Climate by month


(mm)
RAIN
Min (°C)
TEMP
Max (°C)
TEMP
Min (%)
HUMIDITY
Max (%)
HUMIDITY
(m/sec)
WIND
(MJ/sq m)
SOLAR
Jan2.420.328.550.988.36.223.1
Feb4.120.227.552.787.86.020.1
Mar4.918.826.451.487.45.616.5
Apr3.515.623.949.486.95.014.0
May2.112.021.145.583.25.111.4
Jun4.110.018.350.886.15.29.2
Jul2.18.918.641.880.85.210.5
Aug2.09.419.636.878.15.713.2
Sept1.512.322.436.881.25.817.5
Oct2.014.824.141.484.16.021.0
Nov2.617.125.845.785.66.223.3
Dec2.018.927.446.786.46.224.6

source: Australian Government Bureau of Meteorology

Recently Sold

03-05-2022 $900,000 4 / 152 RUSSELL AVE DOLLS POINT 2219
03-05-2022 $900,000 18 / 152 RUSSELL AVE DOLLS POINT 2219
02-05-2022 $1,228,000 2 / 23 MALUA ST DOLLS POINT 2219
12-04-2022 $950,000 12 / 153 RUSSELL AVE DOLLS POINT 2219
08-04-2022 $770,000 4 / 186 RUSSELL AVE DOLLS POINT 2219
08-04-2022 $770,000 20 / 186 RUSSELL AVE DOLLS POINT 2219
06-04-2022 $1,126,000 10 / 171 RUSSELL AVE DOLLS POINT 2219
30-03-2022 $850,000 15 / 25 GANNON AVE DOLLS POINT 2219
28-03-2022 $2,395,000 6 OLDHAM CRES DOLLS POINT 2219
07-03-2022 $885,000 7 / 170 RUSSELL AVE DOLLS POINT 2219
07-03-2022 $885,000 7 / 170 RUSSELL AVE DOLLS POINT 2219
07-03-2022 $885,000 26 / 170 RUSSELL AVE DOLLS POINT 2219
17-02-2022 $2,570,500 16 SKINNERS AVE DOLLS POINT 2219
10-02-2022 $770,000 9 / 157 RUSSELL AVE DOLLS POINT 2219
10-02-2022 $770,000 23 / 157 RUSSELL AVE DOLLS POINT 2219
09-02-2022 $1,760,000 1 OLDHAM CRES DOLLS POINT 2219
07-02-2022 $890,000 5 / 188 RUSSELL AVE DOLLS POINT 2219
07-02-2022 $890,000 20 / 188 RUSSELL AVE DOLLS POINT 2219
07-02-2022 $2,100,000 14 GANNON AVE DOLLS POINT 2219
03-02-2022 $825,000 6 / 156 RUSSELL AVE DOLLS POINT 2219
31-01-2022 $840,000 4 / 7 NORMAN AVE DOLLS POINT 2219
31-01-2022 $1,950,000 7 / 145 RUSSELL AVE DOLLS POINT 2219
27-01-2022 $942,000 14 / 170 RUSSELL AVE DOLLS POINT 2219
24-01-2022 $895,000 1 / 17 GANNON AVE DOLLS POINT 2219
20-01-2022 $750,000 5 / 149 RUSSELL AVE DOLLS POINT 2219
20-01-2022 $750,000 29 / 149 RUSSELL AVE DOLLS POINT 2219
17-01-2022 $680,000 9 / 1 GANNON AVE DOLLS POINT 2219
11-01-2022 $760,000 4 / 164 RUSSELL AVE DOLLS POINT 2219
30-12-2021 $991,667 10 CARRUTHERS DR DOLLS POINT 2219
20-12-2021 $700,000 1 / 25 GANNON AVE DOLLS POINT 2219
08-12-2021 $600,000 13 / 5 GANNON AVE DOLLS POINT 2219
06-12-2021 $1,030,000 4 / 171 RUSSELL AVE DOLLS POINT 2219
02-12-2021 $840,000 1 / 29 GANNON AVE DOLLS POINT 2219
15-11-2021 $785,000 7 / 11 GANNON AVE DOLLS POINT 2219
15-11-2021 $785,000 19 / 11 GANNON AVE DOLLS POINT 2219
15-11-2021 $785,000 7 / 11 GANNON AVE DOLLS POINT 2219
15-11-2021 $785,000 19 / 11 GANNON AVE DOLLS POINT 2219
09-11-2021 $1,185,000 5 / 137 RUSSELL AVE DOLLS POINT 2219
09-11-2021 $1,185,000 5 / 137 RUSSELL AVE DOLLS POINT 2219
09-11-2021 $1,185,000 5 / 137 RUSSELL AVE DOLLS POINT 2219
09-11-2021 $1,185,000 5 / 137 RUSSELL AVE DOLLS POINT 2219
01-11-2021 $1,430,000 12 / 137 RUSSELL AVE DOLLS POINT 2219
29-10-2021 $845,000 10 / 25 GANNON AVE DOLLS POINT 2219
28-10-2021 $1,000,000 1 / 122 RUSSELL AVE DOLLS POINT 2219
29-09-2021 $831,500 2 / 182 RUSSELL AVE DOLLS POINT 2219
29-09-2021 $831,500 12 / 182 RUSSELL AVE DOLLS POINT 2219
29-09-2021 $780,000 5 / 5 GANNON AVE DOLLS POINT 2219
29-09-2021 $780,000 24 / 5 GANNON AVE DOLLS POINT 2219
29-09-2021 $831,500 2 / 182 RUSSELL AVE DOLLS POINT 2219
29-09-2021 $831,500 12 / 182 RUSSELL AVE DOLLS POINT 2219

Residz covers 12m+ Australian properties and brings together a wealth of data to give you a better understanding of an area. From crime and schools to bush fire, flood risk and more. Begin your search for properties for sale or learn more about where you currently reside. Residz is an exciting next-generation Real Estate platform getting better by the day!